Location: Unspecified
(48.8656°N, 0.0000°E)
Time: 16:13:08
(UTC+00:00)

SR - Pass Details

Date: 03 July 2019
Orbit: 580 x 876 km, 66.7° (Epoch: 22 July)

Event Time Altitude Azimuth Distance (km) Brightness Sun altitude
Rises 09:26:04 0° 323° (NW) 3,033 ? 49.6°
Reaches altitude 10° 09:28:18 10° 323° (NW) 2,159 ? 49.9°
Maximum altitude 09:33:14 82° 236° (SW) 752 ? 50.6°
Drops below altitude 10° 09:38:36 10° 150° (SSE) 2,343 ? 51.4°
Sets 09:41:07 0° 149° (SSE) 3,313 ? 51.7°
